RH
5 5 6 6 7 8 8 8 8 8 14 12 13 16 20 13 10 8 7 8 10 14 21 29 36 41 34 34 46 44 43 37 25 17 20 20 26 41 43 50 67 34 14
6 7 7 6 7 7 8 6 5 5 5 6 6 6 6 9 16 18 17 13 12 13 13 12 12 22 34 41 35 32 40 38 37 34 20 24 26 29 28 44 48 44 16
8 7 7 8 6 6 5 4 5 6 6 6 6 5 5 5 5 7 9 20 15 11 6 8 16 19 17 18 38 47 41 33 37 36 39 32 26 22 29 25 39 35 28
9 8 7 5 6 6 7 6 7 6 6 6 6 6 5 5 6 6 6 10 7 8 6 6 6 6 10 18 21 30 42 53 49 42 38 39 42 39 34 18 25 29 37
8 8 8 8 8 9 8 8 8 7 6 6 6 6 6 6 6 6 7 8 9 9 8 9 10 10 7 8 12 19 26 36 42 58 52 41 40 47 43 29 19 18 25
9 10 10 10 9 9 9 8 8 7 7 6 6 7 7 7 8 8 8 9 10 10 9 9 8 8 9 11 7 8 10 14 32 44 60 62 47 40 49 46 25 16 17
9 10 9 9 8 8 9 8 8 8 7 7 8 9 9 10 10 10 10 10 10 11 10 10 9 9 8 7 7 8 11 8 12 42 46 58 65 52 43 48 45 15 15
10 10 9 9 9 10 9 8 8 8 9 10 12 12 12 12 11 11 11 11 10 10 10 9 9 8 9 8 8 7 8 12 10 14 34 58 58 64 54 48 55 43 19
11 11 12 12 12 11 10 9 11 11 11 13 14 13 13 12 12 10 9 9 9 9 8 8 8 7 7 8 8 7 7 7 13 20 18 34 62 66 69 54 59 51 37
15 15 14 13 13 12 13 15 16 17 17 16 15 15 14 12 10 9 10 10 9 9 9 8 8 8 8 7 7 7 7 7 7 9 14 21 57 73 74 74 60 59 57
19 18 19 21 22 22 23 23 22 20 18 17 16 15 13 10 11 12 11 11 10 11 11 11 10 10 10 10 9 7 6 6 7 7 10 16 24 62 78 78 74 64 64
23 25 25 25 24 24 24 25 23 20 19 17 14 12 10 11 12 12 12 12 12 12 12 12 12 10 10 9 9 8 8 7 6 7 7 14 16 40 73 88 88 84 75
23 23 21 20 21 22 22 22 20 19 15 14 13 12 12 13 13 13 12 12 11 10 10 10 11 11 9 8 9 9 9 9 9 8 7 8 19 23 63 87 98 97 93
16 16 16 16 17 18 20 19 16 15 14 14 14 13 13 14 14 13 12 11 11 11 10 10 10 10 9 10 10 10 9 10 11 10 8 7 18 24 43 84 99 97 97
13 12 13 14 16 18 17 14 14 14 14 15 16 15 15 16 15 14 14 13 12 13 13 11 11 11 10 11 11 10 11 13 13 11 9 9 32 40 35 73 98 91 88
11 12 14 15 17 16 15 15 16 16 16 17 17 17 17 16 16 17 15 14 14 15 13 12 11 12 12 12 11 12 13 14 16 13 12 12 22 37 44 40 88 88 98
12 13 15 16 16 16 18 19 19 19 18 18 17 17 17 17 16 15 15 17 17 14 12 12 13 13 13 11 13 20 20 22 21 21 22 20 32 35 54 58 59 92 78
16 17 17 18 18 20 21 21 20 19 18 17 18 18 17 17 16 15 16 14 12 10 10 12 15 14 13 16 24 35 39 37 36 38 31 29 33 42 44 54 50 95 100
18 19 20 21 22 22 23 22 20 19 19 20 21 20 19 19 18 18 15 13 10 9 11 16 16 18 22 37 41 46 45 44 41 39 33 32 33 39 59 43 55 94 97
18 20 21 23 23 24 22 22 22 22 23 25 26 24 24 20 20 14 10 9 8 10 17 19 21 41 48 46 45 46 41 32 32 30 31 38 40 59 68 47 44 90 97
18 20 20 22 23 25 21 23 27 29 28 28 25 22 23 22 15 9 8 8 10 19 21 20 33 40 45 43 40 36 27 21 22 46 51 68 61 78 69 72 34 87 97
20 21 24 25 25 25 22 22 26 26 24 23 23 26 26 17 10 9 10 12 21 22 26 36 36 36 35 34 34 30 25 26 20 64 100 93 100 98 96 87 67 60 99
20 22 28 30 28 24 21 24 28 30 29 27 28 27 16 10 11 11 17 24 25 24 32 32 34 35 36 52 46 36 26 21 26 53 100 99 100 100 100 100 87 64 92
25 27 34 32 26 23 22 29 33 30 26 31 30 19 12 12 12 18 24 26 23 26 29 36 48 58 53 60 66 59 34 24 23 74 100 99 100 100 100 97 96 98 91
35 38 35 28 25 23 28 36 36 34 35 34 22 14 13 12 17 28 28 20 20 26 38 53 61 66 78 82 78 66 45 32 23 41 100 98 100 100 100 100 98 94 90
38 34 28 26 24 29 37 44 41 37 36 26 16 14 13 15 25 31 21 16 22 40 63 69 70 80 73 45 79 79 69 38 25 28 100 100 100 100 100 100 100 98 78
Wind_Speed
8 8 10 12 11 10 10 10 11 14 15 15 15 16 17 17 17 17 18 20 21 23 24 26 28 30 29 30 30 30 30 30 29 28 25 22 22 21 21 22 20 19 19
10 11 11 11 13 12 11 14 15 16 16 17 18 18 17 18 17 17 18 18 20 23 24 26 27 30 31 31 33 33 33 33 31 29 28 26 24 24 24 22 24 23 21
10 11 11 12 13 15 17 15 16 16 17 18 19 21 21 22 24 23 23 23 23 24 24 24 26 27 30 34 32 34 36 35 35 34 31 30 29 27 26 26 24 27 25
9 12 15 17 18 19 19 20 19 21 22 21 23 24 25 26 29 29 28 28 29 29 28 27 26 26 26 27 32 35 34 37 36 37 36 34 32 30 28 27 28 27 28
15 17 20 21 21 20 20 20 21 23 25 26 26 26 27 28 30 30 29 29 30 31 32 31 31 31 30 30 28 30 34 35 38 38 38 38 37 34 33 30 29 31 29
19 21 22 21 21 21 22 24 25 25 26 27 27 27 28 29 30 30 31 32 33 34 32 33 33 34 35 37 35 34 33 37 38 38 41 40 39 39 36 34 31 31 31
22 22 23 21 20 23 25 26 26 26 26 27 29 30 30 31 32 33 33 33 36 37 37 36 34 35 37 37 37 39 38 37 38 40 38 42 41 40 40 38 34 33 33
22 23 23 24 25 27 28 28 28 29 29 29 30 32 33 34 34 35 37 38 40 39 40 42 43 41 40 37 37 41 44 44 41 40 42 40 42 43 42 40 37 34 35
22 23 25 26 27 28 29 30 31 31 30 31 33 34 35 36 36 36 39 41 44 46 47 47 47 47 47 47 44 43 43 46 47 46 45 45 43 43 43 43 42 37 38
23 24 26 27 28 29 29 31 32 32 33 35 36 37 37 37 37 40 44 46 47 48 49 50 51 52 52 51 51 50 49 47 49 51 50 50 48 46 45 46 46 42 39
24 25 26 27 28 30 32 33 34 35 36 38 38 38 37 37 40 45 47 49 50 52 53 54 56 56 57 58 57 56 56 57 52 53 54 55 55 52 49 48 49 47 43
28 30 31 32 34 35 36 36 35 36 37 38 38 39 39 40 45 48 50 53 55 57 59 59 60 62 62 62 62 64 63 62 60 57 57 60 59 57 54 50 50 50 48
30 32 33 35 36 37 37 36 36 37 38 39 39 41 41 45 49 52 55 57 60 63 66 67 69 68 68 70 69 70 68 68 65 60 60 63 63 63 59 56 51 51 53
32 34 36 37 39 38 37 37 38 40 42 43 44 44 46 50 54 57 60 64 66 69 72 75 76 75 76 77 77 74 75 69 66 62 62 66 68 67 65 60 56 52 53
34 36 38 39 38 36 37 39 42 45 47 47 47 48 51 54 58 62 67 70 72 76 80 81 82 81 82 83 83 84 81 71 68 67 64 71 69 68 68 62 57 55 49
36 37 39 38 37 37 39 42 45 48 50 50 48 52 56 59 63 67 70 75 80 85 87 88 88 86 87 87 87 87 83 76 70 71 72 73 71 72 69 68 62 51 47
37 40 40 39 38 39 43 47 51 52 50 49 53 57 61 66 70 74 77 83 89 92 93 94 92 92 91 92 85 77 72 70 73 76 76 73 70 70 73 67 66 59 56
40 42 41 40 40 42 46 51 54 54 52 56 60 63 68 72 78 82 86 90 94 98 99 98 96 95 92 81 74 69 67 66 68 65 65 69 70 70 74 71 69 63 55
43 43 42 41 44 46 50 54 54 53 56 61 65 68 73 77 82 87 92 96 99 102 103 99 95 87 78 72 67 59 56 54 55 57 61 65 69 70 73 75 73 73 52
43 43 44 45 48 50 54 56 56 57 61 65 67 72 77 82 87 91 97 100 105 105 100 93 85 77 70 60 51 49 48 52 55 60 62 63 66 67 72 78 79 79 74
44 45 47 49 51 53 56 57 59 60 64 67 70 75 81 86 90 97 100 103 105 101 95 84 76 66 53 52 49 47 48 54 56 54 58 58 61 65 72 77 80 84 67
46 48 49 51 52 55 57 59 61 63 65 68 72 78 84 88 93 100 104 102 100 88 75 68 57 49 48 51 52 49 46 51 55 53 51 55 58 63 70 75 69 78 75
48 50 52 53 54 56 58 61 63 66 68 71 76 81 87 92 100 103 101 98 84 74 66 54 49 47 44 44 46 46 46 48 52 54 53 53 58 64 68 67 62 64 75
51 52 54 55 57 58 60 64 65 69 72 75 80 85 90 99 104 101 98 83 72 68 59 48 44 40 40 38 39 43 44 44 46 56 51 50 53 57 60 64 57 54 50
53 53 55 56 58 60 63 66 67 71 74 78 83 87 96 102 101 96 80 71 67 61 52 44 40 37 36 34 35 37 41 43 42 54 51 53 49 53 54 57 57 49 54
54 55 56 58 59 62 67 66 70 73 77 80 85 92 100 102 98 85 71 67 61 54 48 42 39 36 36 34 34 34 34 39 41 50 52 48 51 48 46 53 53 52 46
Wind_Direction
333 347 346 335 330 330 328 327 329 327 325 320 315 311 309 306 303 302 304 302 298 294 291 289 286 283 282 282 282 281 280 282 284 283 279 275 270 268 266 262 262 265 267
329 337 331 329 329 331 332 333 335 335 336 338 338 333 331 327 327 325 323 322 316 306 299 296 293 290 286 280 277 278 280 279 278 279 277 272 268 268 266 264 259 260 264
325 327 329 331 335 338 331 324 327 329 333 338 337 340 337 336 335 332 328 325 320 315 312 302 289 287 291 291 284 276 275 275 278 276 272 271 269 265 266 264 261 256 259
324 331 336 329 328 328 324 318 322 325 328 331 335 335 331 331 329 330 330 328 327 325 319 312 306 296 289 289 287 286 280 275 272 274 272 269 267 267 264 263 263 260 255
331 329 324 319 319 319 319 319 326 327 328 328 330 328 326 324 325 323 322 323 325 322 319 316 313 306 298 295 281 285 285 283 278 272 271 267 265 265 264 264 260 259 253
323 323 317 313 313 319 322 326 326 324 323 323 322 322 319 318 319 317 316 318 319 318 314 312 311 308 304 303 298 286 279 280 278 274 270 269 265 263 264 261 260 256 252
310 315 314 311 310 313 318 321 321 321 320 318 317 317 315 313 313 313 313 312 311 313 314 313 309 308 305 300 295 288 278 276 274 273 268 268 267 261 261 260 258 254 249
307 308 310 314 314 316 317 317 317 316 316 315 314 312 311 309 309 311 312 312 312 312 312 311 312 311 308 305 301 296 285 277 269 267 270 265 262 265 259 258 255 251 247
307 311 314 315 314 313 310 311 313 313 311 311 310 309 308 308 309 311 313 314 314 314 314 313 311 311 310 307 303 299 293 287 276 264 263 263 260 256 258 254 252 248 244
313 315 315 314 314 311 311 311 309 310 310 309 308 307 307 308 311 316 316 315 313 314 312 309 308 307 307 306 304 300 296 289 283 275 261 261 258 254 249 251 249 248 243
319 316 313 312 311 311 310 310 310 308 307 306 306 305 306 310 316 316 314 313 312 313 311 308 307 305 304 302 300 298 295 290 285 276 267 255 256 253 248 245 245 245 242
311 310 312 311 311 311 310 308 306 307 307 308 308 309 311 313 314 313 312 313 312 312 310 309 308 306 304 300 295 291 289 287 284 277 271 258 251 253 246 240 240 240 241
312 313 314 313 311 309 307 306 307 309 310 310 310 310 311 311 312 313 315 315 314 314 312 309 306 302 301 298 295 292 288 285 281 274 270 262 250 247 247 242 237 241 238
318 317 316 315 313 310 308 310 312 313 313 311 310 310 309 310 312 315 315 315 313 313 312 308 305 301 299 296 292 288 288 283 275 269 261 258 251 244 244 240 235 237 242
314 315 314 314 312 309 310 312 313 313 312 310 310 308 310 311 311 313 312 312 311 310 310 307 303 299 297 294 290 287 285 280 269 263 256 252 249 244 242 238 236 233 244
309 312 313 311 309 310 313 314 313 311 310 308 309 309 310 311 311 310 310 310 309 309 307 305 301 297 295 293 289 285 283 279 264 256 250 246 245 241 241 236 234 220 233
313 315 312 309 309 313 314 314 313 313 310 309 309 309 310 311 312 310 307 310 310 308 306 304 300 297 295 292 288 283 277 265 255 252 249 245 242 237 237 234 231 222 234
315 313 310 310 309 312 315 317 316 315 311 308 309 311 313 313 314 314 313 312 310 309 307 303 300 297 294 291 282 274 269 264 260 255 248 244 241 235 234 233 229 223 221
315 312 311 308 309 312 317 319 317 314 312 312 314 315 316 316 315 314 313 310 309 308 305 302 299 298 291 285 281 278 270 262 252 246 242 241 239 234 231 229 224 220 218
314 313 312 309 311 313 315 316 317 316 317 317 316 316 316 316 315 314 314 311 309 306 304 304 300 295 294 289 281 270 260 253 244 241 241 239 237 234 229 228 227 227 215
313 315 314 312 311 311 312 316 318 318 318 317 318 317 316 316 315 314 313 311 308 307 309 302 297 296 291 282 274 265 256 252 244 242 244 237 233 231 230 230 231 227 223
312 314 315 313 311 310 311 316 318 318 318 318 317 317 316 315 314 314 313 310 309 309 303 301 299 292 282 276 273 268 255 251 243 234 241 234 230 229 231 234 235 238 230
313 312 313 313 311 312 314 316 316 318 318 317 316 317 316 316 315 315 314 314 312 307 305 304 295 288 281 279 277 272 263 251 241 232 236 235 231 232 233 233 232 234 240
313 311 312 312 313 315 314 315 316 318 318 316 317 318 318 319 318 316 317 316 311 308 308 304 296 289 285 282 280 279 269 255 240 224 235 232 233 234 238 232 234 232 232
312 311 312 312 314 314 314 316 316 316 317 317 318 318 320 319 318 319 318 314 310 309 307 303 296 290 287 286 285 280 272 260 241 223 226 230 232 234 236 233 230 227 226
312 312 312 313 313 314 316 315 315 316 317 317 318 320 320 320 319 320 316 313 311 308 305 301 295 290 288 287 291 286 276 264 245 225 222 223 230 231 233 229 225 220 219